Tracking 25734 objects as of 26-May-2022
HD Live streaming from Space Station
objects crossing your sky now

CZ-3B DEB

Track CZ-3B DEB now!


NORAD ID: 40165
Int'l Code: 2010-042S
Perigee: 718.9 km
Apogee: 41,065.8 km
Inclination: 27.2 °
Period: 746.7 minutes
Semi major axis: 27263 km
RCS: Unknown
Launch date: September 4, 2010
Source: People's Republic of China (PRC)
Launch site: Xichang Space Center, China (XSC)

Note: This is SATELLITE DEBRIS
aabbcc
Your satellite tracking list
Your tracking list is empty




NASA's NSSDC Master Catalog

Two Line Element Set (TLE):
1 40165U 10042S   22145.86863269  .00000137  00000-0  24862-2 0  9990
2 40165  27.2438 151.9638 7399492 256.4738 310.8654  1.92856571 75222
Source of the keplerian elements: AFSPC